Regional Weather Roundup
Issued by NWS Sioux Falls, SD

Home | Current Version | Previous Version | Graphics & Text | Print | Product List | Glossary On
Versions: 1 2 3 4 5 6 7 8 9 10 11 12 13 14 15 16 17 18 19 20 21 22 23 24 25 26 27 28 29 30 31 32 33 34 35 36 37 38 39 40 41 42 43 44 45 46 47 48 49 50
634
ASUS43 KFSD 060310
RWRFSD

WEATHER ROUNDUP FOR SE SOUTH DAKOTA/SW MINNESOTA/NW IOWA
NATIONAL WEATHER SERVICE SIOUX FALLS SD
900 PM CST MON DEC 05 2016

NOTE: "FAIR" INDICATES FEW OR NO CLOUDS BELOW 12,000 FEET WITH NO
SIGNIFICANT WEATHER AND OR OBSTRUCTIONS TO VISIBILITY.


SDZ038>040-050-052>070-060400-
SOUTHEAST SOUTH DAKOTA

CITY           SKY/WX    TMP DP  RH WIND       PRES   REMARKS
BROOKINGS      CLOUDY    27  22  81 W29G36    29.66R WCI  11
CHAMBERLAIN    CLEAR     24  16  71 NW24G35   29.86R WCI   8
HURON          CLOUDY    24  17  74 W25G31    29.77R WCI   8
MADISON        CLOUDY    27  27 100 W26G33    29.71R WCI  11
MITCHELL       CLOUDY    27  21  78 NW20G26   29.81R WCI  13
SIOUX FALLS    CLOUDY    30  25  81 W18G28    29.74R WCI  18
WINNER         MOCLDY    25  15  66 NW25      29.85R WCI   9
YANKTON        CLOUDY   N/A N/A N/A W25G35    29.81R
$$

MNZ071-072-080-081-089-090-097-098-060400-
SOUTHWEST MINNESOTA

CITY           SKY/WX    TMP DP  RH WIND       PRES   REMARKS
FAIRMONT       CLOUDY    39  34  81 W20G26    29.68R
JACKSON        CLOUDY    34  30  86 W15G23    29.69R WCI  24
LUVERNE        CLOUDY    32  27  80 W25G33    29.72R WCI  19
MARSHALL       CLOUDY    32  26  78 W32G43    29.63R WCI  17
MONTEVIDEO     CLOUDY    34  28  80 W15G21    29.61R WCI  24
PIPESTONE      CLOUDY    30  27  86 NW24G31   29.68R WCI  16
REDWOOD FALLS  CLOUDY    36  28  73 W18G25    29.64R
TRACY          CLOUDY    33  28  82 W17G31    29.65R WCI  22
WINDOM         CLOUDY    36  30  80 W16G23    29.67R
WORTHINGTON    CLOUDY    32  28  85 W29G36    29.68R WCI  18
$$

IAZ001>003-012>014-020>022-031-032-NEZ013-014-SDZ071-060400-
NORTHWEST IOWA

CITY           SKY/WX    TMP DP  RH WIND       PRES   REMARKS
CHEROKEE       CLOUDY    35  30  82 W17       29.76R WCI  25
DENISON        CLOUDY    39  34  81 NW20G26   29.74R
ESTHERVILLE    CLOUDY    36  32  85 W17G29    29.69R
LE MARS        CLOUDY    34  27  75 NW17G25   29.79R WCI  23
ORANGE CITY    CLOUDY    34  30  86 W20G28    29.74R WCI  22
SHELDON        CLOUDY    32  30  93 W22G30    29.71R WCI  19
SIOUX CITY     CLOUDY    36  28  73 NW17G28   29.78S
SPENCER        CLOUDY    36  31  82 W23G33    29.72R
STORM LAKE     CLOUDY    36  32  87 W24       29.74R
$$

ABBREVIATIONS USED IN REMARKS
   TC - TEMPERATURE IN CELSIUS
  WCI - WIND CHILL INDEX
   HX - HEAT INDEX
  VSB - VISIBILITY





USA.gov is the U.S. government's official web portal to all federal, state and local government web resources and services.